Total_Precipitation_Accumulation
0.00 0.00 0.01 0.02 0.08 0.19 0.33 0.34 0.41 0.53 0.57 0.51 0.50 0.56 0.67 0.71 0.87 1.57 1.01 0.48 0.33 0.24 0.25 0.27 0.26 0.27 0.29 0.29 0.33 0.33 0.32 0.31 0.28 0.27 0.27 0.27 0.29 0.29 0.30 0.34 0.49 0.55 0.53 0.46 0.44 0.45 0.42 0.39 0.38
0.01 0.01 0.02 0.03 0.10 0.30 0.37 0.35 0.43 0.53 0.48 0.42 0.46 0.52 0.51 0.51 0.49 0.51 0.61 0.43 0.30 0.24 0.25 0.21 0.21 0.24 0.27 0.25 0.25 0.29 0.32 0.32 0.28 0.26 0.28 0.29 0.30 0.32 0.33 0.36 0.51 0.70 0.70 0.66 0.57 0.50 0.46 0.42 0.38
0.01 0.02 0.03 0.03 0.12 0.33 0.43 0.40 0.45 0.46 0.40 0.44 0.50 0.54 0.58 0.59 0.53 0.50 0.49 0.31 0.31 0.28 0.23 0.22 0.20 0.21 0.22 0.22 0.25 0.31 0.36 0.41 0.37 0.32 0.31 0.30 0.29 0.32 0.35 0.40 0.48 0.69 0.75 0.72 0.65 0.60 0.54 0.48 0.41
0.02 0.03 0.03 0.05 0.14 0.27 0.36 0.40 0.50 0.56 0.49 0.49 0.47 0.62 0.69 0.59 0.58 0.54 0.48 0.39 0.32 0.32 0.29 0.23 0.21 0.22 0.23 0.25 0.25 0.28 0.44 0.47 0.41 0.38 0.36 0.34 0.36 0.35 0.41 0.50 0.55 0.55 0.61 0.65 0.69 0.72 0.62 0.49 0.42
0.03 0.03 0.04 0.07 0.16 0.23 0.36 0.45 0.60 0.66 0.52 0.46 0.48 0.77 0.91 0.83 0.76 0.72 0.61 0.54 0.41 0.36 0.40 0.30 0.28 0.28 0.29 0.27 0.27 0.31 0.40 0.45 0.46 0.47 0.45 0.41 0.41 0.43 0.49 0.57 0.62 0.62 0.66 0.68 0.68 0.73 0.65 0.56 0.51
0.02 0.03 0.05 0.10 0.15 0.24 0.31 0.45 0.50 0.57 0.53 0.46 0.60 0.99 1.35 1.35 1.26 1.16 1.02 0.75 0.54 0.43 0.50 0.45 0.38 0.34 0.34 0.33 0.32 0.36 0.44 0.51 0.55 0.53 0.47 0.45 0.45 0.48 0.53 0.59 0.61 0.66 0.69 0.65 0.61 0.65 0.65 0.65 0.62
0.02 0.03 0.06 0.11 0.18 0.26 0.32 0.47 0.53 0.59 0.58 0.60 0.81 1.06 1.37 1.51 1.55 1.45 1.31 1.03 0.92 0.81 0.84 0.76 0.58 0.50 0.46 0.49 0.50 0.46 0.46 0.49 0.56 0.58 0.51 0.48 0.49 0.50 0.52 0.55 0.58 0.60 0.61 0.62 0.59 0.61 0.60 0.61 0.63
0.03 0.03 0.05 0.12 0.21 0.28 0.37 0.56 0.54 0.54 0.61 0.70 0.96 1.21 1.55 1.51 1.34 1.48 1.48 1.32 1.29 1.34 1.30 0.94 0.74 0.71 0.74 0.73 0.67 0.60 0.55 0.55 0.56 0.56 0.57 0.54 0.52 0.55 0.60 0.56 0.60 0.61 0.63 0.60 0.58 0.59 0.60 0.61 0.66
0.04 0.04 0.06 0.14 0.23 0.29 0.32 0.50 0.48 0.42 0.49 0.67 0.95 1.09 1.27 1.21 1.18 1.47 1.58 1.72 1.79 1.61 1.41 1.25 1.02 0.94 0.92 0.84 0.73 0.73 0.70 0.67 0.68 0.67 0.65 0.66 0.65 0.76 0.81 0.71 0.78 0.75 0.73 0.66 0.67 0.68 0.68 0.68 0.68
0.02 0.03 0.06 0.13 0.17 0.24 0.32 0.44 0.40 0.45 0.51 0.65 0.78 1.03 1.25 1.18 1.36 1.54 1.68 2.05 1.96 1.83 1.63 1.54 1.42 1.24 1.15 0.95 1.00 1.04 0.98 0.94 0.90 1.00 0.95 0.99 1.17 1.28 1.17 1.28 1.21 1.08 0.98 0.92 0.93 0.95 0.87 0.77 0.71
0.03 0.04 0.08 0.12 0.14 0.20 0.31 0.41 0.41 0.52 0.70 0.99 1.08 1.12 1.19 1.21 1.44 1.69 1.92 2.26 2.31 2.07 1.74 1.69 1.66 1.66 1.66 1.60 1.43 1.33 1.34 1.38 1.33 1.46 1.38 1.46 1.56 1.51 1.56 1.67 1.50 1.36 1.28 1.25 1.31 1.20 0.95 0.91 0.99
0.06 0.07 0.12 0.12 0.16 0.25 0.40 0.49 0.65 0.72 0.87 1.12 1.21 1.18 1.27 1.36 1.52 1.70 1.95 2.25 2.48 2.39 2.18 2.17 1.96 1.90 1.97 2.15 2.06 1.69 1.59 1.61 1.58 1.79 1.73 1.88 2.01 2.00 2.10 2.12 1.90 1.84 1.82 1.83 1.71 1.61 1.41 1.30 1.27
0.07 0.09 0.12 0.11 0.20 0.31 0.47 0.51 0.63 0.62 0.55 0.84 1.08 1.21 1.34 1.33 1.51 1.69 2.01 2.55 2.83 2.82 2.64 2.61 2.48 2.36 2.40 2.63 2.66 2.14 2.00 2.12 2.35 2.43 2.25 2.24 2.25 2.31 2.49 2.44 2.34 2.23 2.31 2.24 2.10 1.91 1.93 1.87 1.69
0.04 0.06 0.09 0.12 0.18 0.26 0.40 0.40 0.52 0.69 0.64 0.78 0.96 1.17 1.36 1.58 1.85 2.11 2.39 2.82 3.12 3.24 3.10 2.97 2.89 2.84 2.77 2.85 2.87 2.83 2.58 2.63 2.82 2.91 2.85 2.65 2.66 2.82 2.98 2.94 2.77 2.52 2.50 2.46 2.38 2.32 2.38 2.31 2.25
0.06 0.07 0.10 0.15 0.22 0.26 0.30 0.48 0.61 0.73 0.79 0.91 1.05 1.18 1.39 1.68 1.97 2.25 2.72 3.01 3.06 3.11 3.09 3.16 3.07 3.16 3.23 3.24 3.12 3.21 3.20 3.25 3.38 3.39 3.20 2.98 2.98 3.30 3.37 3.38 3.10 2.86 2.82 2.95 2.88 2.80 2.77 2.52 2.43
0.10 0.11 0.15 0.19 0.22 0.28 0.28 0.56 0.73 0.62 0.66 0.88 1.12 1.21 1.29 1.49 1.91 2.30 2.70 2.89 3.04 3.39 3.42 3.40 3.38 3.44 3.61 3.59 3.45 3.45 3.45 3.74 3.81 3.79 3.66 3.38 3.31 3.42 3.50 3.49 3.35 3.20 3.14 3.38 3.49 3.40 3.31 3.13 3.04
0.14 0.17 0.19 0.23 0.22 0.27 0.30 0.55 0.71 0.68 0.68 0.88 1.26 1.47 1.43 1.55 2.00 2.44 2.77 3.01 3.15 3.32 3.50 3.47 3.52 3.69 3.70 3.75 3.58 3.70 3.89 3.90 3.83 3.82 3.85 3.79 3.72 3.77 3.80 3.71 3.70 3.73 3.80 3.79 3.57 3.66 3.54 3.53 3.41
0.17 0.19 0.20 0.25 0.27 0.25 0.31 0.53 0.74 0.82 0.98 1.07 1.24 1.45 1.61 1.66 1.84 2.20 2.66 3.10 3.24 3.25 3.21 3.34 3.40 3.54 3.63 3.86 3.86 3.90 4.05 4.20 4.34 4.47 4.50 4.27 4.22 4.18 4.38 4.34 4.27 4.26 4.23 4.03 3.96 3.94 3.75 3.58 3.45
0.17 0.21 0.24 0.27 0.27 0.33 0.41 0.56 0.80 0.94 1.13 1.12 1.15 1.28 1.41 1.69 1.89 2.21 2.56 2.87 3.38 3.39 3.24 3.32 3.49 3.69 3.79 4.07 4.16 4.38 4.72 4.93 5.08 5.12 5.00 4.97 4.86 4.97 5.02 4.81 4.60 4.47 4.46 4.37 4.33 4.14 3.92 3.66 3.54
0.20 0.30 0.34 0.31 0.27 0.36 0.52 0.68 0.87 1.00 1.10 1.06 1.14 1.32 1.47 1.88 2.24 2.40 2.59 3.00 3.48 3.62 3.60 3.60 3.79 4.11 4.32 4.56 5.02 5.31 5.56 5.79 5.99 6.02 5.58 5.38 5.27 5.17 5.10 5.12 5.03 4.84 4.66 4.46 4.28 4.20 4.03 3.69 3.60
0.14 0.22 0.27 0.29 0.28 0.37 0.58 0.87 1.02 1.12 1.25 1.42 1.61 1.77 1.90 2.12 2.47 2.53 2.60 2.95 3.29 3.47 3.56 3.66 3.91 4.33 4.87 5.26 5.74 6.15 6.30 6.32 6.19 5.93 5.80 5.65 5.48 5.32 5.17 5.05 4.83 4.68 4.56 4.39 4.19 4.02 3.91 3.69 3.56
0.15 0.16 0.24 0.25 0.31 0.42 0.54 0.98 1.32 1.41 1.53 1.81 2.01 1.98 2.08 2.25 2.44 2.53 2.67 2.92 3.21 3.42 3.54 3.86 4.36 4.96 5.51 6.00 6.56 7.05 7.13 6.95 6.65 6.20 5.77 5.54 5.28 4.96 4.73 4.61 4.50 4.32 4.01 3.78 3.63 3.55 3.40 3.28 3.13
0.14 0.12 0.20 0.24 0.28 0.38 0.53 0.91 1.70 1.83 1.86 2.09 2.27 2.04 2.03 2.03 2.10 2.34 2.50 2.68 3.06 3.25 3.46 3.80 4.37 5.05 5.74 6.56 7.25 7.69 7.60 7.26 6.83 6.14 5.56 5.10 4.71 4.36 4.10 3.97 3.81 3.59 3.22 2.87 2.74 2.82 2.90 2.91 2.84
0.11 0.12 0.17 0.22 0.29 0.45 0.46 0.79 1.56 1.98 2.12 2.21 2.12 1.94 1.90 1.83 1.83 1.96 2.10 2.33 2.63 2.93 3.21 3.62 4.23 4.91 5.55 6.19 6.72 6.96 6.87 6.67 6.14 5.45 4.83 4.43 4.10 3.76 3.41 3.10 2.85 2.62 2.45 2.26 2.21 2.25 2.34 2.54 2.65
0.11 0.16 0.39 0.54 0.61 0.62 0.49 0.80 1.49 1.79 1.92 1.84 1.78 1.81 1.70 1.75 1.71 1.71 1.79 1.99 2.30 2.48 2.85 3.29 3.73 4.36 4.76 5.09 5.52 5.70 5.73 5.51 5.20 4.72 4.25 3.81 3.32 2.98 2.70 2.43 2.32 2.19 2.08 2.01 2.00 1.98 1.94 2.06 2.25
0.12 0.14 0.44 0.71 0.70 0.70 0.68 1.12 1.64 1.68 1.63 1.54 1.48 1.52 1.56 1.59 1.61 1.61 1.73 1.90 2.16 2.27 2.45 2.68 3.00 3.37 3.54 3.58 3.82 4.08 4.09 4.04 3.91 3.61 3.29 2.99 2.64 2.26 2.02 1.83 1.72 1.71 1.76 1.70 1.73 1.74 1.73 1.74 1.82
0.11 0.13 0.20 0.40 0.49 0.81 1.10 1.52 1.94 1.79 1.72 1.64 1.60 1.45 1.40 1.38 1.42 1.53 1.62 1.65 1.70 1.78 1.89 1.99 2.18 2.35 2.44 2.52 2.59 2.73 2.75 2.73 2.66 2.48 2.23 2.04 1.89 1.65 1.51 1.43 1.41 1.40 1.43 1.49 1.49 1.45 1.47 1.54 1.58
0.10 0.16 0.24 0.43 0.79 1.05 1.34 1.89 2.44 2.33 1.97 1.68 1.49 1.29 1.19 1.23 1.30 1.39 1.47 1.48 1.49 1.49 1.58 1.65 1.73 1.80 1.85 1.92 1.89 1.87 1.89 1.89 1.86 1.71 1.64 1.55 1.43 1.33 1.33 1.26 1.20 1.14 1.13 1.15 1.19 1.22 1.25 1.29 1.35
0.17 0.22 0.32 0.47 0.59 0.97 1.48 2.20 2.34 2.53 2.41 1.95 1.61 1.44 1.31 1.23 1.20 1.27 1.27 1.26 1.27 1.29 1.35 1.43 1.45 1.44 1.44 1.44 1.42 1.40 1.36 1.35 1.39 1.40 1.35 1.28 1.20 1.10 1.07 0.97 0.91 0.88 0.91 0.97 1.02 1.06 1.11 1.15 1.18
0.18 0.23 0.34 0.65 0.73 0.73 1.36 2.37 2.30 2.56 2.62 2.32 2.00 1.82 1.69 1.40 1.29 1.29 1.22 1.16 1.11 1.12 1.16 1.23 1.24 1.23 1.27 1.19 1.09 1.11 1.08 1.07 1.11 1.14 1.06 1.01 1.00 0.93 0.87 0.76 0.73 0.72 0.76 0.82 0.85 0.88 0.92 1.01 1.02